This is the latest recevied weather packets stored in our database for station/object W3JGB. If no packets are shown the sender has not sent any weather packets the latest 10 day(s).
| Time | Temp. | Humidity | Pressure | Rain* | Wind** | Luminosity | Snow |
|---|---|---|---|---|---|---|---|
| 1778078342 | 13.89° C | 99% | 1006.7 hPa | 1.27 mm | - | 59 W/m² | - |
| 1778077737 | 13.89° C | 99% | 1006.9 hPa | 0 mm | - | 40 W/m² | - |
| 1778077132 | 13.89° C | 99% | 1006.7 hPa | 3.05 mm | - | 53 W/m² | - |
| 1778076528 | 13.89° C | 99% | 1006.7 hPa | 0 mm | - | 44 W/m² | - |
| 1778074102 | 13.89° C | 99% | 1006.7 hPa | 1.27 mm | - | 40 W/m² | - |
| 1778073799 | 13.89° C | 99% | 1006.8 hPa | 1.27 mm | - | 44 W/m² | - |
| 1778073497 | 13.89° C | 99% | 1006.7 hPa | 0 mm | - | 49 W/m² | - |
| 1778073193 | 13.89° C | 99% | 1006.8 hPa | 1.78 mm | - | 49 W/m² | - |
| 1778070470 | 13.33° C | 99% | 1007.3 hPa | 4.32 mm | - | 9 W/m² | - |
| 1778070167 | 13.33° C | 99% | 1007.3 hPa | 4.32 mm | - | 11 W/m² | - |
| 1778069865 | 13.33° C | 99% | 1007.3 hPa | 4.83 mm | - | 16 W/m² | - |
| 1778069259 | 13.33° C | 99% | 1007.7 hPa | 3.05 mm | - | 17 W/m² | - |
| 1778068050 | 13.33° C | 99% | 1007.6 hPa | 3.05 mm | - | 13 W/m² | - |
| 1778065023 | 12.78° C | 99% | 1006.6 hPa | 1.78 mm | - | 6 W/m² | - |
| 1778063812 | 13.33° C | 99% | 1006.6 hPa | 0 mm | - | 1 W/m² | - |
| 1778060182 | 13.33° C | 99% | 1006 hPa | 0 mm | - | 0 W/m² | - |
| 1778059879 | 13.33° C | 99% | 1006.1 hPa | 0 mm | - | 0 W/m² | - |
| 1778059577 | 13.33° C | 99% | 1006.3 hPa | 0 mm | - | 0 W/m² | - |
| 1778058971 | 13.33° C | 99% | 1006.3 hPa | 0 mm | - | 0 W/m² | - |
| 1778058669 | 13.33° C | 99% | 1006.4 hPa | 0 mm | - | 0 W/m² | - |
| 1778058367 | 13.33° C | 99% | 1006.4 hPa | 0 mm | - | 0 W/m² | - |
| 1778058063 | 12.78° C | 98% | 1006.3 hPa | 0 mm | - | 0 W/m² | - |
| 1778057760 | 12.78° C | 99% | 1006.5 hPa | 0 mm | - | 0 W/m² | - |
| 1778057456 | 12.78° C | 99% | 1006.5 hPa | 0 mm | - | 0 W/m² | - |
| 1778057153 | 12.78° C | 98% | 1006.4 hPa | 0 mm | - | 0 W/m² | - |
* Rain latest hour (hover to see other rain measurements)
** Current wind speed in m/s (hover to see current wind gust speed)